Location: Newark
(40.0251°N, 85.2247°W)
Time: 11:43:08
(UTC+00:00)

Hubble Space Telescope - Pass Details

Date: 16 December 2019
Orbit: 536 x 540 km, 28.5° (Epoch: 20 January)

Event Time Altitude Azimuth Distance (km) Brightness Sun altitude
Exits shadow 11:15:56 - 213° (SSW) 1,974 3.5 -18.5°
Reaches altitude 10° 11:16:45 10° 205° (SSW) 1,783 3.3 -18.3°
Maximum altitude 11:19:00 14° 171° (S) 1,525 3.4 -17.9°
Drops below altitude 10° 11:21:16 10° 138° (SE) 1,785 4.3 -17.5°
Sets 11:24:23 0° 113° (ESE) 2,677 6.1 -16.9°
